Wind_Speed
13 13 13 13 13 12 12 11 11 10 10 9 8 7 7 7 7 7 6 7 7 7 7 6 6 6 6 6 7 7 7 7 7 7 6 6 5 5 5 5 4 5 5
15 15 14 14 14 14 14 13 13 12 12 11 10 9 9 8 8 7 7 7 7 7 7 7 7 7 7 7 7 7 7 7 7 7 7 7 6 6 5 5 5 5 5
17 17 16 16 16 16 15 15 14 14 13 13 12 12 11 10 9 9 9 9 9 8 8 8 8 8 8 8 8 8 8 7 8 8 8 7 7 7 7 6 6 6 6
18 18 18 18 17 17 17 16 16 15 15 15 14 14 13 12 12 11 10 10 10 10 9 9 9 9 9 9 10 9 9 9 8 9 9 9 8 8 8 7 7 7 7
19 19 19 19 19 19 18 18 18 17 17 17 16 16 15 15 14 13 12 12 12 11 11 11 10 10 10 10 10 10 10 10 9 9 10 10 10 10 9 9 8 8 8
20 20 20 20 20 20 20 19 19 19 19 18 18 18 17 17 16 15 14 14 13 13 13 13 12 12 12 11 12 12 11 11 11 11 11 11 11 11 11 10 10 10 9
21 21 21 21 21 21 21 21 20 20 20 19 20 19 19 19 18 18 17 16 16 16 15 15 14 14 14 14 13 13 13 13 13 13 13 13 13 13 13 12 12 12 12
22 22 22 22 22 22 22 22 22 22 21 21 21 21 20 20 20 19 19 19 18 18 17 17 17 16 16 16 15 15 16 15 15 15 14 14 15 15 15 14 14 14 14
23 23 23 23 23 23 23 23 23 23 23 23 23 23 23 23 22 22 21 21 21 20 20 19 19 19 18 18 18 18 18 18 17 17 16 16 16 16 16 16 16 16 15
25 25 25 25 25 25 25 25 25 24 24 25 25 24 24 25 25 24 24 23 23 23 22 22 21 21 21 21 20 20 20 20 19 19 18 18 18 18 18 18 18 18 17
27 26 27 27 27 26 26 26 26 26 25 25 25 25 26 26 26 26 26 26 25 25 25 24 24 24 23 23 23 23 23 22 22 21 21 20 20 20 20 20 19 19 19
28 28 28 28 28 28 28 27 27 27 27 27 27 27 27 27 27 27 27 27 27 27 27 27 26 26 25 25 25 25 25 25 25 24 24 23 23 22 22 22 22 21 21
29 29 29 29 29 29 29 29 29 29 29 28 28 28 28 28 28 28 28 28 29 29 29 29 29 28 28 27 27 27 27 27 27 27 26 26 25 25 24 24 24 24 23
31 31 30 30 31 31 31 30 30 30 30 30 30 30 30 30 30 30 30 30 30 30 30 30 30 30 30 30 30 29 29 29 29 29 29 29 28 27 27 26 26 25 25
33 32 32 32 32 32 32 32 32 32 32 32 32 32 32 32 32 32 31 31 31 31 32 32 32 31 31 31 32 31 31 31 31 31 30 30 30 30 29 29 28 28 28
34 34 33 33 33 33 33 33 33 33 33 33 34 34 33 33 33 33 33 33 33 33 33 33 33 33 32 33 33 32 32 33 32 31 31 31 31 31 31 31 30 30 30
36 36 35 35 35 35 34 34 34 34 35 35 35 35 34 34 34 34 34 34 34 34 35 34 34 34 34 34 33 33 33 34 33 33 32 32 32 33 33 32 32 32 32
37 37 37 36 36 36 35 35 35 36 36 36 36 36 36 36 35 35 35 35 35 35 36 36 35 36 36 35 34 33 34 34 35 34 34 34 35 35 34 34 33 33 34
37 37 38 38 38 37 37 37 36 36 37 37 37 37 37 37 36 36 36 36 36 36 36 36 36 36 37 37 36 35 35 35 35 35 36 36 37 36 35 36 36 35 35
37 38 38 38 38 38 38 38 37 37 37 37 37 37 37 37 37 36 37 36 37 37 36 36 36 37 37 37 37 37 37 36 37 37 37 38 38 38 38 37 37 38 37
39 39 39 39 39 38 38 38 38 37 38 38 37 37 37 37 37 36 36 36 36 37 37 36 37 36 37 37 38 38 38 37 37 37 38 38 39 39 39 39 39 39 39
40 40 40 40 40 39 39 38 38 38 38 38 38 37 37 37 37 36 36 37 37 38 38 37 37 37 38 38 39 38 39 38 38 38 39 39 40 40 40 40 39 41 41
40 40 40 40 40 40 40 40 39 39 38 38 38 38 37 37 37 37 37 36 37 37 37 37 37 38 38 39 40 40 40 39 40 40 40 41 41 42 42 42 42 41 42
39 39 40 40 40 40 40 41 40 40 39 39 38 38 37 38 37 38 38 37 37 36 37 36 37 38 38 39 40 40 40 41 41 41 41 42 42 43 44 44 44 43 43
39 40 40 40 40 41 41 41 41 41 41 40 40 39 38 38 37 37 38 38 38 38 38 38 38 38 38 39 39 40 40 41 42 42 42 42 43 43 44 44 45 44 44
40 40 40 40 40 41 41 42 42 42 41 41 41 40 40 39 38 37 38 37 37 37 38 38 39 38 39 40 40 41 41 42 42 42 43 43 43 43 43 44 44 45 45
Wind_Direction
240 240 239 239 237 236 234 234 235 234 233 232 230 228 223 223 222 216 213 213 214 214 214 214 214 212 210 209 211 213 212 214 214 212 211 210 211 211 212 210 203 197 190
243 242 241 240 239 237 236 236 237 236 235 234 233 232 230 228 228 226 224 222 221 221 221 219 219 220 218 217 218 218 215 215 215 214 215 214 213 213 216 216 211 207 199
244 244 243 242 242 241 239 238 239 238 236 236 236 237 236 235 234 234 233 231 228 228 227 226 226 227 228 226 224 223 221 217 218 217 218 219 217 215 218 218 216 215 212
245 245 245 244 244 244 242 241 240 239 239 239 239 240 240 239 238 238 239 238 235 234 234 232 231 232 233 232 228 227 227 223 223 223 224 225 222 220 218 219 220 221 222
247 246 246 245 246 247 245 244 242 241 242 242 242 242 242 242 241 242 242 241 241 240 240 238 237 236 236 236 233 231 231 231 230 229 229 229 227 225 225 225 225 225 226
249 249 247 246 247 248 247 246 245 244 244 243 244 243 243 243 242 243 243 243 245 245 245 243 242 242 239 238 237 235 234 235 234 235 234 233 231 230 230 230 231 231 231
251 250 249 248 248 248 248 248 246 246 245 244 244 244 243 243 242 243 244 244 245 246 247 248 247 245 243 241 241 241 238 239 238 237 238 237 235 234 235 234 236 236 238
252 251 251 249 248 248 248 247 247 246 246 246 245 245 244 243 244 244 245 245 245 246 247 249 249 246 245 245 245 245 244 242 242 240 240 240 238 237 237 237 238 239 241
253 252 251 250 250 248 248 248 248 247 247 247 247 246 245 245 245 245 246 246 247 247 248 249 250 249 248 247 247 248 247 245 244 243 243 242 240 240 240 239 240 241 242
254 253 252 251 251 250 249 248 248 248 248 248 248 248 247 246 246 246 246 247 248 248 248 249 250 251 251 249 249 249 249 248 247 245 246 245 242 242 243 242 241 242 243
254 254 252 251 250 249 249 249 248 248 249 249 248 248 248 248 248 248 248 248 250 250 250 250 250 251 251 251 250 250 250 249 249 248 247 247 245 244 244 244 244 245 245
254 254 253 252 250 249 249 249 249 249 250 250 250 249 249 249 249 248 248 249 250 251 252 251 251 251 251 251 250 250 250 250 250 249 248 248 247 246 246 246 246 246 247
254 254 253 253 252 250 250 250 250 251 251 251 250 250 250 251 250 249 249 250 251 251 252 252 252 251 251 251 250 250 250 251 251 250 249 249 248 248 248 248 248 248 248
254 254 254 254 253 252 252 251 251 251 251 251 251 252 251 251 251 251 251 251 252 252 252 252 253 253 252 251 250 250 250 251 250 250 250 249 248 249 249 249 249 249 248
253 253 253 253 253 253 253 253 252 251 252 252 252 253 253 252 251 251 252 253 253 253 252 253 253 253 252 252 251 251 251 250 249 249 250 250 249 249 250 250 250 250 249
253 253 253 253 252 252 252 253 253 253 253 253 253 253 253 253 253 252 253 254 254 254 254 253 252 252 252 252 252 252 251 251 250 250 250 250 250 249 250 251 250 251 251
253 252 253 253 253 252 252 252 253 253 253 254 254 254 253 253 253 253 254 255 254 253 254 254 253 252 252 251 251 252 251 252 251 250 250 250 251 249 250 251 251 252 253
253 252 252 252 252 253 253 253 253 254 254 254 254 254 254 254 254 254 254 255 254 254 254 254 254 253 251 250 250 251 251 252 252 250 250 250 251 249 249 251 252 253 253
253 252 251 251 252 253 253 254 254 254 254 254 255 255 254 254 255 255 255 257 254 255 255 254 253 251 250 250 249 249 250 251 252 252 251 251 250 249 250 251 252 254 255
254 253 252 251 251 252 252 253 254 254 254 255 255 254 254 254 254 255 255 256 255 255 255 254 253 252 250 250 249 249 250 251 252 252 252 252 251 250 251 251 252 254 255
255 255 253 250 250 251 252 252 253 253 253 254 254 254 254 254 254 255 256 257 257 256 254 255 254 253 251 249 248 249 251 252 252 251 251 251 251 251 252 253 254 255 256
255 254 252 251 251 250 251 251 251 251 252 253 253 254 255 255 254 254 255 256 257 257 255 254 254 253 251 248 248 251 252 253 252 251 251 251 252 252 253 254 256 257 258
256 254 252 251 251 250 251 251 251 251 251 252 253 254 255 255 254 254 255 256 256 256 256 255 255 255 253 251 250 252 253 252 252 252 252 252 253 254 254 256 257 259 259
255 253 252 250 250 250 250 250 251 251 251 251 253 254 254 254 254 255 255 257 257 256 255 255 255 256 255 253 253 253 254 253 253 254 254 254 254 254 255 256 257 258 259
254 252 251 250 249 249 249 249 250 251 251 251 252 253 255 255 254 255 256 256 256 256 255 256 257 257 256 255 254 255 255 254 254 255 254 254 255 256 257 258 259 259 259
253 251 250 249 249 248 248 248 249 250 250 251 251 252 254 254 254 255 255 256 257 256 257 258 257 256 257 257 256 256 256 256 255 255 255 255 256 256 257 258 259 259 260
Height
5846 5847 5847 5848 5848 5849 5850 5850 5851 5852 5852 5853 5853 5854 5854 5855 5855 5855 5856 5856 5856 5857 5857 5857 5858 5858 5859 5859 5860 5860 5861 5861 5862 5862 5863 5863 5864 5865 5865 5865 5866 5866 5866
5844 5844 5845 5845 5846 5847 5847 5848 5849 5850 5851 5851 5852 5852 5853 5853 5854 5854 5855 5855 5855 5856 5856 5856 5857 5857 5858 5858 5859 5859 5860 5861 5861 5862 5862 5863 5863 5864 5864 5865 5865 5865 5866
5841 5841 5842 5843 5843 5844 5845 5846 5847 5847 5848 5849 5850 5850 5851 5851 5852 5853 5853 5853 5854 5854 5855 5855 5856 5856 5857 5857 5858 5858 5859 5859 5860 5861 5861 5862 5862 5863 5863 5864 5864 5865 5865
5837 5838 5839 5839 5840 5841 5842 5843 5844 5845 5846 5846 5847 5848 5849 5849 5850 5850 5851 5851 5852 5852 5853 5854 5854 5855 5855 5856 5857 5857 5858 5858 5859 5859 5860 5860 5861 5862 5862 5863 5863 5864 5864
5834 5834 5835 5836 5837 5838 5839 5840 5841 5841 5842 5843 5844 5845 5846 5847 5847 5848 5849 5849 5850 5850 5851 5852 5852 5853 5854 5854 5855 5856 5856 5857 5857 5858 5858 5859 5860 5860 5861 5861 5862 5862 5863
5830 5830 5831 5832 5833 5834 5835 5836 5837 5838 5839 5840 5841 5842 5843 5844 5845 5845 5846 5847 5847 5848 5849 5849 5850 5851 5852 5852 5853 5854 5854 5855 5856 5856 5857 5857 5858 5858 5859 5860 5860 5861 5862
5826 5826 5827 5828 5829 5830 5831 5832 5833 5834 5835 5836 5837 5838 5839 5840 5841 5842 5843 5844 5845 5845 5846 5847 5847 5848 5849 5850 5851 5851 5852 5853 5853 5854 5855 5855 5856 5856 5857 5858 5858 5859 5860
5822 5822 5823 5823 5824 5825 5826 5827 5828 5829 5831 5832 5833 5834 5835 5836 5837 5838 5839 5840 5841 5842 5843 5844 5844 5845 5846 5847 5848 5849 5850 5850 5851 5852 5852 5853 5854 5854 5855 5855 5856 5857 5858
5817 5817 5818 5818 5819 5820 5821 5822 5823 5825 5826 5827 5828 5829 5830 5832 5833 5834 5835 5836 5837 5838 5839 5840 5841 5842 5843 5844 5845 5845 5846 5847 5848 5849 5849 5850 5851 5851 5852 5853 5853 5854 5855
5811 5812 5813 5813 5814 5815 5816 5817 5818 5819 5821 5822 5823 5824 5825 5827 5828 5829 5830 5832 5833 5834 5835 5836 5837 5838 5839 5840 5841 5842 5843 5843 5844 5845 5846 5847 5847 5848 5849 5849 5850 5851 5852
5806 5806 5807 5808 5809 5810 5811 5812 5813 5814 5815 5816 5817 5819 5820 5821 5822 5824 5825 5826 5828 5829 5830 5831 5832 5833 5834 5835 5836 5837 5838 5839 5840 5841 5842 5843 5844 5845 5845 5846 5847 5848 5849
5799 5800 5801 5802 5803 5804 5805 5806 5807 5808 5809 5810 5812 5813 5814 5815 5817 5818 5819 5821 5822 5823 5824 5826 5827 5828 5829 5830 5831 5833 5833 5834 5836 5837 5838 5839 5839 5840 5841 5842 5843 5844 5845
5792 5793 5794 5795 5796 5798 5799 5800 5801 5802 5803 5804 5805 5807 5808 5809 5810 5812 5813 5815 5816 5817 5818 5820 5821 5822 5824 5825 5826 5827 5828 5829 5830 5832 5833 5834 5835 5836 5837 5838 5839 5840 5841
5785 5786 5787 5788 5790 5791 5792 5793 5794 5795 5797 5798 5799 5800 5801 5802 5804 5805 5806 5808 5809 5811 5812 5813 5815 5816 5817 5819 5820 5821 5822 5823 5825 5826 5827 5828 5829 5830 5831 5833 5834 5835 5836
5777 5779 5780 5781 5782 5784 5785 5786 5787 5788 5790 5791 5792 5793 5794 5795 5797 5798 5799 5801 5802 5803 5805 5806 5808 5809 5811 5812 5813 5815 5816 5817 5818 5819 5821 5822 5823 5825 5826 5827 5828 5829 5830
5769 5771 5772 5773 5774 5776 5777 5779 5780 5781 5782 5783 5784 5785 5786 5788 5789 5790 5792 5793 5794 5796 5797 5799 5800 5802 5803 5805 5806 5807 5809 5810 5811 5813 5814 5816 5817 5818 5819 5821 5822 5823 5824
5760 5762 5763 5765 5766 5768 5769 5771 5772 5773 5774 5775 5776 5777 5779 5780 5781 5783 5784 5785 5787 5788 5789 5791 5792 5794 5796 5797 5799 5800 5802 5803 5804 5806 5807 5809 5810 5811 5813 5814 5815 5817 5818
5751 5753 5754 5756 5758 5759 5761 5762 5763 5765 5766 5767 5768 5769 5770 5772 5773 5774 5776 5777 5779 5780 5781 5783 5784 5786 5788 5790 5792 5793 5794 5796 5797 5798 5800 5802 5803 5804 5806 5807 5808 5810 5811
5741 5743 5745 5747 5749 5750 5752 5753 5755 5756 5757 5758 5759 5761 5762 5763 5765 5766 5767 5769 5770 5772 5773 5775 5776 5778 5780 5782 5784 5785 5787 5788 5789 5791 5792 5794 5795 5797 5798 5800 5801 5802 5804
5731 5733 5735 5737 5739 5741 5742 5744 5746 5747 5748 5750 5751 5752 5753 5755 5756 5757 5758 5760 5761 5763 5765 5766 5768 5769 5771 5773 5776 5777 5779 5780 5781 5783 5784 5785 5787 5788 5790 5791 5793 5794 5796
5720 5722 5724 5727 5729 5731 5733 5735 5737 5738 5739 5741 5742 5743 5745 5746 5747 5749 5750 5751 5753 5754 5756 5757 5759 5761 5762 5764 5766 5768 5770 5771 5772 5774 5775 5777 5778 5779 5781 5782 5784 5785 5787
5710 5712 5714 5716 5718 5721 5723 5725 5727 5729 5730 5731 5733 5735 5736 5737 5739 5740 5741 5743 5744 5745 5747 5749 5750 5751 5753 5755 5757 5759 5761 5763 5764 5765 5766 5768 5769 5770 5772 5773 5775 5776 5778
5699 5701 5703 5706 5708 5711 5713 5715 5717 5719 5721 5722 5724 5726 5727 5729 5730 5731 5732 5733 5735 5736 5738 5739 5741 5742 5744 5746 5748 5750 5752 5754 5756 5757 5758 5759 5760 5761 5763 5764 5766 5767 5768
5689 5691 5693 5696 5698 5701 5703 5706 5708 5710 5712 5714 5715 5717 5718 5720 5721 5722 5724 5725 5726 5727 5729 5730 5732 5733 5735 5737 5739 5741 5743 5745 5747 5748 5749 5750 5751 5752 5753 5755 5756 5757 5758
5679 5681 5683 5686 5689 5691 5694 5696 5698 5700 5702 5704 5706 5707 5709 5711 5712 5713 5714 5716 5717 5718 5720 5721 5723 5724 5726 5727 5729 5731 5733 5734 5736 5738 5740 5741 5742 5743 5744 5745 5746 5747 5748
5669 5671 5673 5676 5678 5681 5683 5686 5688 5690 5692 5694 5696 5698 5700 5701 5703 5704 5705 5706 5708 5709 5711 5712 5714 5715 5716 5718 5720 5721 5723 5725 5726 5727 5729 5730 5732 5733 5734 5735 5735 5736 5737